Regional Weather Roundup
Issued by NWS

Home | Current Version | Previous Version | Text Only | Print | Product List | Glossary Off
Versions: 1 2 3 4 5 6 7 8 9 10 11 12 13 14 15 16 17 18 19 20 21 22 23 24 25 26 27 28 29 30 31 32 33 34 35 36 37 38 39 40 41 42 43 44 45 46 47 48 49 50

000
ASUS45 KBOU 180707
RWRCO

WEATHER ROUNDUP FOR COLORADO
NATIONAL WEATHER SERVICE DENVER/BOULDER CO
100 AM MDT SAT APR 18 2015

NOTE: "FAIR" INDICATES FEW OR NO CLOUDS BELOW 12000 FEET WITH NO
SIGNIFICANT WEATHER AND/OR OBSTRUCTIONS TO VISIBILITY.

COZ001>005-013-030-031-180800-
...NORTHWEST COLORADO...

CITY           SKY/WX    TMP DP  RH WIND       PRES   REMARKS
CRAIG          CLOUDY    36  33  89 SW12      30.03F
HAYDEN         NOT AVBL
MEEKER         CLOUDY    37  34  89 MISG      30.04S
MOUNT WERNER   NOT AVBL
STEAMBOAT SPGS MOCLDY    32  24  71 CALM      30.02S
WALDEN         CLOUDY    28  25  86 NW6       30.03F WCI  22
$$

COZ006>008-011-180800-
...WEST CENTRAL VALLEYS...

CITY           SKY/WX    TMP DP  RH WIND       PRES   REMARKS
GRAND JUNCTION MOCLDY    33  33 100 E5        30.06S FOG     WCI  29
MONTROSE       CLOUDY    32  32 100 NW5       30.08S FOG     WCI  27
EAGLE          CLOUDY    30  28  93 CALM      30.07F
RIFLE          CLOUDY    35  32  88 E6        30.06S WCI  30
DELTA          CLOUDY    35  34  98 W3        30.07S
NUCLA          FOG       32  32 100 NW3       30.09R VSB 3/4
$$

COZ017>023-064>068-180800-
...SOUTHWEST COLORADO...

CITY           SKY/WX    TMP DP  RH WIND       PRES   REMARKS
DURANGO        FLURRIES  34  30  85 W6        30.02S WCI  29
CORTEZ         LGT SNOW  32  32 100 CALM      30.02F FOG
PAGOSA SPRINGS CLOUDY    27  19  70 NE3       30.03F
TELLURIDE      LGT SNOW  26  24  93 CALM      30.03S
WOLF CREEK PAS CLOUDY    12  10  92 CALM      30.04F FOG
$$

COZ009-010-012-014-032>034-037-058>063-180800-
...CENTRAL COLORADO...

CITY           SKY/WX    TMP DP  RH WIND       PRES   REMARKS
ASPEN          MOCLDY    23  17  78 VRB7      30.03F WCI  15
BUENA VISTA    CLOUDY    25  15  66 NW15      30.05S WCI  12
COPPER MTN     CLOUDY    21   9  58 CALM      30.04F
BERTHOUD PASS  SNOW      12   5  73 NE5       30.05F VSB<1/4 WCI   4
COTTONWOOD PAS CLOUDY    27  14  59 W12       30.04S WCI  16
GUNNISON       PTCLDY    25  21  86 NE6       30.09R WCI  18
KREMMLING      CLOUDY    30  23  74 CALM      30.04F
LEADVILLE      LGT SNOW  18  14  84 CALM      30.04F FOG
MONARCH PASS   CLOUDY    14  12  92 MISG      30.12S
SALIDA         CLOUDY    25  18  74 W7        30.13S WCI  17
SUNLIGHT       MOCLDY   N/A N/A N/A CALM      30.07F
WILKERSON PASS FLURRIES  19  18  93 CALM      30.05F
$$

COZ069>075-180800-
...SAN LUIS VALLEY/SANGRE DE CRISTO MOUNTAINS...

CITY           SKY/WX    TMP DP  RH WIND       PRES   REMARKS
ALAMOSA        CLEAR     24  20  84 NE5       30.02F WCI  18
LA VETA PASS   PTCLDY    19  12  73 MISG      30.01S
SAGUACHE       PTCLDY    25  21  86 NW7       30.05R WCI  17
$$

COZ035-036-038>040-180800-
...NORTHERN COLORADO FRONT RANGE...

CITY           SKY/WX    TMP DP  RH WIND       PRES   REMARKS
DENVER INTL AP CLOUDY    38  36  92 NE5       30.01F
DMNS CITY PARK   N/A     40  35  84 N6G12     30.03S
AURORA         CLOUDY    38  38 100 N8        30.03S
FRONT RANGE AP CLOUDY    39  37  93 NE6       30.02F
ERIE MUNI ARPT CLOUDY    41  36  84 NE7       30.02F
BOULDER MUN AP CLOUDY    41  36  81 N5        30.03S
CENTENNIAL     CLOUDY    36  35  96 NW3       30.02F
BROOMFIELD     CLOUDY    39  36  87 N6        30.04S
FORT COLLINS   CLOUDY    39  34  81 NE7       30.04F
LONGMONT       CLOUDY    43  36  75 N9        30.05S
$$

COZ041-046-047-076>085-087-088-180800-
...PIKES PEAK/PALMER DIVIDE AND SOUTHERN FOOTHILLS...

CITY           SKY/WX    TMP DP  RH WIND       PRES   REMARKS
COLO. SPRINGS  MOCLDY    37  31  78 NW14      30.01R
A. F. ACADEMY  CLOUDY    32  32  99 N8        30.01R WCI  25
ELLICOTT       PTCLDY   N/A N/A N/A N13       29.98F
FALCON         PTCLDY    32  31  94 N15       30.01F WCI  22
FORT CARSON    PTCLDY    34  31  87 NW8       29.99S WCI  28
LIMON          PTCLDY    36  33  89 N8        30.00R
MONUMENT HILL  FOG       30  30 100 NW3       30.02R VSB 1/2
TRINIDAD       CLOUDY    40  28  62 E12       30.01S
$$

COZ042>045-048>051-090-091-180800-
...NORTHEAST COLORADO...

CITY           SKY/WX    TMP DP  RH WIND       PRES   REMARKS
GREELEY ARPT   CLOUDY    39  30  70 CALM      30.04S
AKRON          CLOUDY    41  41 100 N14       30.01S
BURLINGTON     MOCLDY    45  42  89 N8        29.96F
WRAY           CLOUDY    46  43  88 NW13      29.98F
STERLING       RAIN      43  41  93 N21       30.00F
HOLYOKE        CLOUDY    46  43  87 NW12G17   30.00F
FORT MORGAN    CLOUDY    39  37  90 CALM      30.02R
$$

COZ086-089-092>099-180800-
...SOUTHEAST COLORADO...

CITY           SKY/WX    TMP DP  RH WIND       PRES   REMARKS
PUEBLO         PTCLDY    40  35  83 NW8       29.98S
LA JUNTA       PTCLDY    42  36  79 CALM      29.98R
LAMAR          CLEAR     40  36  86 SW3       29.95F
SPRINGFIELD      N/A     37  32  82 NW7       29.95F
$$


USA.gov is the U.S. government's official web portal to all federal, state and local government web resources and services.